| time (UTC) | temp F | wind direction | speed MPH | gust MPH | rain 1hr in | rain 24hr in | rain mn in | humidity % | barometer mb |
| 20260831002029 | 75 | 139 | 0.0 | 2.0 | 0.00 | 0.07 | 0.07 | 93 | 1015.0 |
| 20260831001541 | 75 | 121 | 0.0 | 1.0 | 0.00 | 0.07 | 0.07 | 93 | 1015.2 |
| 20260831001029 | 75 | 84 | 0.0 | 1.0 | 0.00 | 0.07 | 0.07 | 93 | 1015.3 |
| 20260831000527 | 75 | 0 | 0.0 | 0.0 | 0.00 | 0.07 | 0.07 | 93 | 1015.6 |
| 20260831000047 | 75 | 0 | 0.0 | 1.0 | 0.00 | 0.07 | 0.07 | 93 | 1015.6 |
| 20260830235525 | 75 | 0 | 0.0 | 2.0 | 0.00 | 0.07 | 0.07 | 93 | 1015.7 |
| 20260830235028 | 75 | 0 | 0.0 | 2.0 | 0.00 | 0.07 | 0.07 | 92 | 1015.6 |
| 20260830234548 | 75 | 0 | 0.0 | 2.0 | 0.00 | 0.07 | 0.07 | 92 | 1015.3 |
| 20260830234025 | 75 | 0 | 0.0 | 2.0 | 0.00 | 0.07 | 0.07 | 92 | 1015.1 |
| 20260830233537 | 75 | 0 | 0.0 | 2.0 | 0.00 | 0.07 | 0.07 | 93 | 1015.1 |
| 20260830233054 | 75 | 0 | 0.0 | 2.0 | 0.00 | 0.07 | 0.07 | 92 | 1015.3 |
| 20260830232529 | 76 | 0 | 0.0 | 3.0 | 0.00 | 0.07 | 0.07 | 92 | 1015.5 |
| 20260830232029 | 76 | 215 | 0.0 | 4.0 | 0.00 | 0.07 | 0.07 | 92 | 1015.2 |
| 20260830231558 | 76 | 162 | 2.0 | 4.0 | 0.00 | 0.07 | 0.07 | 91 | 1015.4 |
| 20260830231030 | 76 | 212 | 1.0 | 4.0 | 0.00 | 0.07 | 0.07 | 91 | 1015.3 |
| 20260830230529 | 76 | 152 | 0.0 | 1.0 | 0.00 | 0.07 | 0.07 | 90 | 1015.5 |
| 20260830230055 | 77 | 0 | 0.0 | 0.0 | 0.00 | 0.07 | 0.07 | 89 | 1015.7 |
| 20260830225527 | 77 | 0 | 0.0 | 0.0 | 0.00 | 0.07 | 0.07 | 88 | 1015.9 |
| 20260830225027 | 77 | 0 | 0.0 | 0.0 | 0.00 | 0.07 | 0.07 | 88 | 1015.8 |
| 20260830224555 | 77 | 0 | 0.0 | 0.0 | 0.00 | 0.07 | 0.07 | 88 | 1015.8 |
| 20260830224027 | 78 | 0 | 0.0 | 0.0 | 0.00 | 0.07 | 0.07 | 87 | 1015.9 |
| 20260830223530 | 78 | 0 | 0.0 | 0.0 | 0.00 | 0.07 | 0.07 | 87 | 1015.8 |
| 20260830223104 | 78 | 0 | 0.0 | 0.0 | 0.00 | 0.07 | 0.07 | 86 | 1016.0 |
| 20260830222528 | 78 | 0 | 0.0 | 0.0 | 0.00 | 0.07 | 0.07 | 86 | 1016.0 |
| 20260830222030 | 78 | 0 | 0.0 | 0.0 | 0.00 | 0.07 | 0.07 | 86 | 1015.8 |
| 20260830221603 | 78 | 0 | 0.0 | 0.0 | 0.00 | 0.07 | 0.07 | 85 | 1015.7 |
| 20260830221027 | 78 | 0 | 0.0 | 0.0 | 0.00 | 0.07 | 0.07 | 85 | 1015.9 |
| 20260830220529 | 79 | 0 | 0.0 | 0.0 | 0.00 | 0.07 | 0.07 | 84 | 1015.7 |
| 20260830220058 | 79 | 0 | 0.0 | 0.0 | 0.00 | 0.07 | 0.07 | 84 | 1015.5 |
| 20260830215529 | 79 | 0 | 0.0 | 1.0 | 0.00 | 0.07 | 0.07 | 83 | 1015.5 |
| 20260830215032 | 79 | 0 | 0.0 | 1.0 | 0.00 | 0.07 | 0.07 | 83 | 1015.4 |
| 20260830214556 | 79 | 0 | 0.0 | 1.0 | 0.00 | 0.07 | 0.07 | 83 | 1015.4 |
| 20260830214026 | 79 | 0 | 0.0 | 1.0 | 0.00 | 0.07 | 0.07 | 82 | 1015.3 |
| 20260830213526 | 79 | 131 | 0.0 | 2.0 | 0.00 | 0.07 | 0.07 | 82 | 1015.3 |
| 20260830213045 | 79 | 0 | 0.0 | 2.0 | 0.00 | 0.07 | 0.07 | 82 | 1015.6 |
| 20260830212529 | 79 | 0 | 0.0 | 2.0 | 0.00 | 0.07 | 0.07 | 81 | 1015.6 |
| 20260830212029 | 79 | 147 | 0.0 | 3.0 | 0.00 | 0.07 | 0.07 | 81 | 1015.8 |
| 20260830211545 | 79 | 153 | 1.0 | 3.0 | 0.00 | 0.07 | 0.07 | 80 | 1015.8 |
| 20260830211026 | 80 | 129 | 1.0 | 3.0 | 0.00 | 0.07 | 0.07 | 80 | 1016.0 |
| 20260830210529 | 80 | 259 | 1.0 | 4.0 | 0.00 | 0.07 | 0.07 | 78 | 1016.0 |
| 20260830210058 | 80 | 236 | 1.0 | 5.0 | 0.00 | 0.07 | 0.07 | 79 | 1016.0 |
| 20260830205528 | 81 | 238 | 1.0 | 5.0 | 0.00 | 0.07 | 0.07 | 78 | 1016.1 |
| 20260830205029 | 81 | 169 | 1.0 | 5.0 | 0.00 | 0.07 | 0.07 | 79 | 1015.9 |
| 20260830204548 | 81 | 184 | 1.0 | 5.0 | 0.00 | 0.07 | 0.07 | 79 | 1015.9 |
| 20260830204029 | 80 | 158 | 2.0 | 5.0 | 0.00 | 0.07 | 0.07 | 78 | 1015.9 |
| 20260830203529 | 80 | 226 | 0.0 | 2.0 | 0.00 | 0.07 | 0.07 | 78 | 1016.0 |
| 20260830203102 | 80 | 203 | 0.0 | 2.0 | 0.00 | 0.07 | 0.07 | 80 | 1015.9 |
| 20260830202527 | 79 | 0 | 0.0 | 4.0 | 0.00 | 0.07 | 0.07 | 81 | 1015.9 |
| 20260830202029 | 78 | 165 | 1.0 | 4.0 | 0.00 | 0.07 | 0.07 | 82 | 1015.8 |
| 20260830201543 | 78 | 206 | 1.0 | 4.0 | 0.00 | 0.07 | 0.07 | 83 | 1015.9 |
| 20260830201026 | 78 | 144 | 0.0 | 3.0 | 0.00 | 0.07 | 0.07 | 83 | 1015.9 |
| 20260830200527 | 78 | 148 | 0.0 | 3.0 | 0.00 | 0.07 | 0.07 | 82 | 1016.0 |
| 20260830200048 | 78 | 221 | 0.0 | 3.0 | 0.00 | 0.07 | 0.07 | 82 | 1016.4 |
| 20260830195533 | 78 | 0 | 0.0 | 2.0 | 0.00 | 0.07 | 0.07 | 82 | 1016.5 |
| 20260830195027 | 78 | 0 | 0.0 | 2.0 | 0.00 | 0.07 | 0.07 | 81 | 1016.3 |
| 20260830194555 | 78 | 0 | 0.0 | 4.0 | 0.00 | 0.07 | 0.07 | 81 | 1016.3 |
| 20260830194028 | 78 | 63 | 1.0 | 4.0 | 0.00 | 0.07 | 0.07 | 81 | 1016.2 |
| 20260830193527 | 78 | 236 | 1.0 | 7.0 | 0.00 | 0.07 | 0.07 | 81 | 1016.2 |
| 20260830193050 | 78 | 256 | 2.0 | 8.0 | 0.00 | 0.07 | 0.07 | 82 | 1015.8 |
| 20260830192528 | 78 | 213 | 3.0 | 8.0 | 0.00 | 0.07 | 0.07 | 81 | 1015.8 |
| 20260830192026 | 78 | 215 | 2.0 | 6.0 | 0.00 | 0.07 | 0.07 | 81 | 1015.6 |
| 20260830191552 | 78 | 169 | 1.0 | 6.0 | 0.00 | 0.07 | 0.07 | 80 | 1015.7 |
| 20260830191026 | 78 | 225 | 2.0 | 7.0 | 0.00 | 0.07 | 0.07 | 80 | 1015.8 |
| 20260830190528 | 78 | 235 | 2.0 | 7.0 | 0.00 | 0.07 | 0.07 | 80 | 1015.7 |
| 20260830190053 | 78 | 160 | 2.0 | 7.0 | 0.00 | 0.07 | 0.07 | 79 | 1015.7 |
| 20260830185530 | 78 | 204 | 2.0 | 10.0 | 0.00 | 0.07 | 0.07 | 79 | 1015.9 |
| 20260830185026 | 78 | 221 | 2.0 | 10.0 | 0.00 | 0.07 | 0.07 | 78 | 1015.6 |
| 20260830184552 | 79 | 166 | 4.0 | 8.0 | 0.00 | 0.07 | 0.07 | 77 | 1015.4 |
| 20260830184030 | 79 | 145 | 4.0 | 8.0 | 0.00 | 0.07 | 0.07 | 77 | 1015.4 |
| 20260830183529 | 80 | 207 | 3.0 | 8.0 | 0.00 | 0.07 | 0.07 | 77 | 1015.2 |
| 20260830183046 | 80 | 240 | 3.0 | 8.0 | 0.00 | 0.07 | 0.07 | 79 | 1015.1 |
| 20260830182530 | 80 | 224 | 3.0 | 11.0 | 0.00 | 0.07 | 0.07 | 77 | 1015.1 |
| 20260830182031 | 80 | 236 | 4.0 | 11.0 | 0.00 | 0.07 | 0.07 | 78 | 1015.0 |
| 20260830181547 | 80 | 275 | 4.0 | 12.0 | 0.00 | 0.07 | 0.07 | 78 | 1014.9 |
| 20260830181027 | 80 | 196 | 4.0 | 12.0 | 0.00 | 0.07 | 0.07 | 79 | 1014.9 |
| 20260830180529 | 80 | 192 | 4.0 | 12.0 | 0.00 | 0.07 | 0.07 | 79 | 1014.8 |
| 20260830180055 | 80 | 203 | 5.0 | 11.0 | 0.00 | 0.07 | 0.07 | 79 | 1014.8 |
| 20260830175529 | 79 | 164 | 5.0 | 11.0 | 0.00 | 0.07 | 0.07 | 79 | 1014.8 |
| 20260830175026 | 79 | 175 | 3.0 | 7.0 | 0.00 | 0.07 | 0.07 | 81 | 1014.9 |
| 20260830174600 | 79 | 143 | 3.0 | 7.0 | 0.00 | 0.07 | 0.07 | 81 | 1015.1 |
| 20260830174031 | 78 | 176 | 4.0 | 9.0 | 0.00 | 0.07 | 0.07 | 81 | 1015.1 |
| 20260830173527 | 78 | 246 | 3.0 | 9.0 | 0.00 | 0.07 | 0.07 | 82 | 1015.1 |
| 20260830173056 | 77 | 154 | 4.0 | 9.0 | 0.00 | 0.07 | 0.07 | 84 | 1015.0 |
| 20260830172528 | 77 | 131 | 3.0 | 9.0 | 0.00 | 0.07 | 0.07 | 83 | 1015.3 |
| 20260830172029 | 76 | 174 | 4.0 | 9.0 | 0.00 | 0.07 | 0.07 | 83 | 1015.1 |
| 20260830171545 | 76 | 116 | 4.0 | 9.0 | 0.00 | 0.07 | 0.07 | 83 | 1015.3 |
| 20260830171030 | 76 | 140 | 3.0 | 14.0 | 0.00 | 0.07 | 0.07 | 85 | 1015.2 |
| 20260830170528 | 75 | 157 | 4.0 | 14.0 | 0.00 | 0.07 | 0.07 | 85 | 1015.1 |
| 20260830170047 | 75 | 199 | 5.0 | 18.0 | 0.00 | 0.07 | 0.07 | 85 | 1015.0 |
| 20260830165527 | 75 | 210 | 5.0 | 18.0 | 0.00 | 0.07 | 0.07 | 85 | 1015.2 |
| 20260830165027 | 74 | 179 | 5.0 | 14.0 | 0.00 | 0.07 | 0.07 | 85 | 1015.1 |
| 20260830164548 | 75 | 227 | 5.0 | 11.0 | 0.00 | 0.07 | 0.07 | 84 | 1015.5 |
| 20260830164029 | 75 | 122 | 4.0 | 11.0 | 0.00 | 0.07 | 0.07 | 84 | 1015.5 |
| 20260830163527 | 75 | 94 | 5.0 | 11.0 | 0.00 | 0.07 | 0.07 | 83 | 1015.6 |
| 20260830163049 | 75 | 274 | 3.0 | 12.0 | 0.00 | 0.07 | 0.07 | 83 | 1015.7 |
| 20260830162528 | 75 | 153 | 5.0 | 12.0 | 0.00 | 0.07 | 0.07 | 83 | 1015.7 |
| 20260830162029 | 75 | 167 | 5.0 | 11.0 | 0.00 | 0.07 | 0.07 | 82 | 1015.8 |
| 20260830161544 | 75 | 213 | 3.0 | 8.0 | 0.01 | 0.07 | 0.07 | 84 | 1015.7 |
| 20260830161029 | 75 | 136 | 3.0 | 8.0 | 0.01 | 0.07 | 0.07 | 88 | 1015.8 |
| 20260830160529 | 73 | 238 | 4.0 | 8.0 | 0.01 | 0.07 | 0.07 | 88 | 1015.6 |
| 20260830160057 | 73 | 170 | 3.0 | 7.0 | 0.01 | 0.07 | 0.07 | 89 | 1015.7 |
| 20260830155529 | 72 | 204 | 3.0 | 7.0 | 0.01 | 0.07 | 0.07 | 88 | 1015.7 |
| 20260830155029 | 72 | 202 | 2.0 | 9.0 | 0.01 | 0.07 | 0.07 | 89 | 1015.6 |
| 20260830154550 | 72 | 243 | 3.0 | 10.0 | 0.01 | 0.07 | 0.07 | 90 | 1015.5 |
| 20260830154028 | 71 | 221 | 4.0 | 10.0 | 0.01 | 0.07 | 0.07 | 91 | 1015.5 |
| 20260830153529 | 71 | 185 | 4.0 | 10.0 | 0.01 | 0.07 | 0.07 | 92 | 1015.4 |
| 20260830153048 | 71 | 207 | 4.0 | 13.0 | 0.01 | 0.07 | 0.07 | 92 | 1015.3 |
| 20260830152528 | 70 | 214 | 5.0 | 13.0 | 0.01 | 0.07 | 0.07 | 92 | 1015.0 |
| 20260830152027 | 70 | 141 | 5.0 | 13.0 | 0.01 | 0.07 | 0.07 | 93 | 1014.8 |
| 20260830151554 | 70 | 165 | 5.0 | 9.0 | 0.00 | 0.06 | 0.06 | 94 | 1014.9 |
| 20260830151033 | 70 | 160 | 4.0 | 13.0 | 0.00 | 0.06 | 0.06 | 97 | 1015.3 |
| 20260830150526 | 70 | 183 | 5.0 | 13.0 | 0.00 | 0.06 | 0.06 | 99 | 1014.6 |
| 20260830150049 | 70 | 209 | 4.0 | 8.0 | 0.00 | 0.06 | 0.06 | 99 | 1015.1 |
| 20260830145529 | 69 | 231 | 3.0 | 7.0 | 0.00 | 0.06 | 0.06 | 100 | 1015.1 |
| 20260830145027 | 69 | 222 | 3.0 | 7.0 | 0.00 | 0.06 | 0.06 | 99 | 1015.3 |
| 20260830144545 | 69 | 143 | 3.0 | 7.0 | 0.01 | 0.06 | 0.06 | 100 | 1015.7 |
| 20260830144027 | 69 | 214 | 2.0 | 6.0 | 0.02 | 0.06 | 0.06 | 100 | 1015.8 |
| 20260830143533 | 68 | 214 | 2.0 | 6.0 | 0.02 | 0.06 | 0.06 | 100 | 1016.0 |
| 20260830143103 | 68 | 188 | 3.0 | 6.0 | 0.02 | 0.06 | 0.06 | 100 | 1015.7 |
| 20260830142529 | 68 | 193 | 2.0 | 6.0 | 0.02 | 0.06 | 0.06 | 100 | 1015.6 |
| 20260830142030 | 68 | 168 | 2.0 | 10.0 | 0.02 | 0.06 | 0.06 | 100 | 1015.8 |
| 20260830141556 | 67 | 167 | 2.0 | 10.0 | 0.02 | 0.06 | 0.06 | 100 | 1015.8 |
| 20260830141028 | 67 | 172 | 3.0 | 7.0 | 0.02 | 0.06 | 0.06 | 100 | 1015.8 |
| 20260830140526 | 67 | 219 | 2.0 | 6.0 | 0.02 | 0.06 | 0.06 | 99 | 1015.7 |
| 20260830140051 | 67 | 212 | 3.0 | 6.0 | 0.03 | 0.06 | 0.06 | 99 | 1015.8 |
| 20260830135528 | 67 | 159 | 3.0 | 6.0 | 0.04 | 0.06 | 0.06 | 99 | 1015.9 |
| 20260830135029 | 67 | 141 | 2.0 | 5.0 | 0.04 | 0.06 | 0.06 | 99 | 1015.9 |
| 20260830134545 | 67 | 175 | 2.0 | 4.0 | 0.04 | 0.05 | 0.05 | 99 | 1016.2 |
| 20260830134027 | 67 | 165 | 2.0 | 4.0 | 0.03 | 0.04 | 0.04 | 99 | 1016.3 |
| 20260830133528 | 67 | 148 | 2.0 | 5.0 | 0.03 | 0.04 | 0.04 | 99 | 1016.4 |
| 20260830133106 | 67 | 141 | 2.0 | 5.0 | 0.04 | 0.04 | 0.04 | 98 | 1016.5 |
| 20260830132533 | 67 | 169 | 1.0 | 6.0 | 0.04 | 0.04 | 0.04 | 98 | 1016.7 |
| 20260830132028 | 67 | 181 | 3.0 | 6.0 | 0.04 | 0.04 | 0.04 | 97 | 1016.8 |
| 20260830131553 | 67 | 231 | 3.0 | 6.0 | 0.04 | 0.04 | 0.04 | 97 | 1016.8 |
| 20260830131027 | 67 | 179 | 2.0 | 4.0 | 0.04 | 0.04 | 0.04 | 96 | 1016.8 |
| 20260830130532 | 67 | 165 | 2.0 | 3.0 | 0.04 | 0.04 | 0.04 | 95 | 1017.0 |
| 20260830130048 | 68 | 166 | 0.0 | 2.0 | 0.03 | 0.03 | 0.03 | 94 | 1017.3 |
| 20260830125526 | 68 | 0 | 0.0 | 1.0 | 0.02 | 0.02 | 0.02 | 93 | 1017.3 |
| 20260830125026 | 68 | 0 | 0.0 | 2.0 | 0.02 | 0.02 | 0.02 | 93 | 1017.2 |
| 20260830124552 | 68 | 0 | 0.0 | 3.0 | 0.01 | 0.01 | 0.01 | 93 | 1017.1 |
| 20260830124029 | 68 | 184 | 0.0 | 3.0 | 0.01 | 0.01 | 0.01 | 92 | 1017.1 |
| 20260830123527 | 68 | 173 | 1.0 | 3.0 | 0.01 | 0.01 | 0.01 | 92 | 1017.1 |
| 20260830123042 | 68 | 0 | 0.0 | 3.0 | 0.00 | 0.00 | 0.00 | 92 | 1017.1 |
| 20260830122529 | 68 | 159 | 1.0 | 3.0 | 0.00 | 0.00 | 0.00 | 91 | 1016.9 |
| 20260830122032 | 68 | 0 | 1.0 | 3.0 | 0.00 | 0.00 | 0.00 | 91 | 1017.0 |
| 20260830121548 | 69 | 0 | 0.0 | 0.0 | 0.00 | 0.00 | 0.00 | 91 | 1017.1 |
| 20260830121028 | 69 | 0 | 0.0 | 1.0 | 0.00 | 0.00 | 0.00 | 91 | 1017.2 |
| 20260830120526 | 69 | 0 | 0.0 | 1.0 | 0.00 | 0.00 | 0.00 | 90 | 1017.0 |
| 20260830120047 | 69 | 173 | 0.0 | 1.0 | 0.00 | 0.00 | 0.00 | 90 | 1016.7 |
| 20260830115529 | 69 | 141 | 0.0 | 1.0 | 0.00 | 0.00 | 0.00 | 89 | 1016.6 |
| 20260830115026 | 69 | 148 | 0.0 | 1.0 | 0.00 | 0.00 | 0.00 | 89 | 1016.4 |
| 20260830114607 | 69 | 0 | 0.0 | 1.0 | 0.00 | 0.00 | 0.00 | 88 | 1016.4 |
| 20260830114028 | 69 | 148 | 0.0 | 3.0 | 0.00 | 0.00 | 0.00 | 88 | 1016.3 |
| 20260830113527 | 69 | 0 | 1.0 | 4.0 | 0.00 | 0.00 | 0.00 | 88 | 1016.1 |
| 20260830113051 | 70 | 134 | 1.0 | 4.0 | 0.00 | 0.00 | 0.00 | 88 | 1016.0 |
| 20260830112529 | 70 | 231 | 1.0 | 4.0 | 0.00 | 0.00 | 0.00 | 87 | 1015.8 |
| 20260830112028 | 70 | 214 | 2.0 | 4.0 | 0.00 | 0.00 | 0.00 | 87 | 1015.7 |
| 20260830111548 | 70 | 217 | 1.0 | 5.0 | 0.00 | 0.00 | 0.00 | 87 | 1015.5 |
| 20260830111029 | 70 | 238 | 2.0 | 5.0 | 0.00 | 0.00 | 0.00 | 86 | 1015.4 |
| 20260830110527 | 70 | 220 | 2.0 | 6.0 | 0.00 | 0.00 | 0.00 | 86 | 1015.4 |
| 20260830110046 | 70 | 184 | 2.0 | 7.0 | 0.00 | 0.00 | 0.00 | 85 | 1015.5 |
| 20260830105529 | 70 | 131 | 3.0 | 7.0 | 0.00 | 0.00 | 0.00 | 85 | 1015.4 |
| 20260830105032 | 70 | 154 | 2.0 | 7.0 | 0.00 | 0.00 | 0.00 | 84 | 1015.4 |
| 20260830104556 | 71 | 210 | 2.0 | 7.0 | 0.00 | 0.00 | 0.00 | 84 | 1015.4 |
| 20260830104030 | 71 | 68 | 2.0 | 9.0 | 0.00 | 0.00 | 0.00 | 83 | 1015.3 |
| 20260830103531 | 71 | 178 | 2.0 | 9.0 | 0.00 | 0.00 | 0.00 | 83 | 1015.2 |
| 20260830103049 | 71 | 151 | 2.0 | 7.0 | 0.00 | 0.00 | 0.00 | 82 | 1015.1 |
| 20260830102530 | 71 | 127 | 2.0 | 6.0 | 0.00 | 0.00 | 0.00 | 82 | 1015.1 |
| 20260830102030 | 71 | 120 | 3.0 | 6.0 | 0.00 | 0.00 | 0.00 | 82 | 1015.2 |
| 20260830101550 | 71 | 126 | 2.0 | 5.0 | 0.00 | 0.00 | 0.00 | 81 | 1015.0 |
| 20260830101030 | 71 | 191 | 2.0 | 6.0 | 0.00 | 0.00 | 0.00 | 81 | 1015.0 |
| 20260830100530 | 71 | 228 | 2.0 | 6.0 | 0.00 | 0.00 | 0.00 | 81 | 1015.0 |
| 20260830100043 | 71 | 217 | 2.0 | 7.0 | 0.00 | 0.00 | 0.00 | 81 | 1014.9 |
| 20260830095530 | 71 | 167 | 2.0 | 7.0 | 0.00 | 0.00 | 0.00 | 81 | 1015.1 |
| 20260830095030 | 71 | 130 | 2.0 | 7.0 | 0.00 | 0.00 | 0.00 | 81 | 1015.1 |
| 20260830094553 | 71 | 193 | 2.0 | 4.0 | 0.00 | 0.00 | 0.00 | 81 | 1015.0 |
| 20260830094030 | 71 | 157 | 1.0 | 6.0 | 0.00 | 0.00 | 0.00 | 81 | 1015.2 |
| 20260830093530 | 71 | 157 | 2.0 | 6.0 | 0.00 | 0.00 | 0.00 | 81 | 1015.2 |
| 20260830093045 | 71 | 132 | 1.0 | 5.0 | 0.00 | 0.00 | 0.00 | 80 | 1015.1 |
| 20260830092530 | 71 | 130 | 3.0 | 6.0 | 0.00 | 0.00 | 0.00 | 80 | 1015.1 |
| 20260830092033 | 71 | 198 | 2.0 | 6.0 | 0.00 | 0.00 | 0.00 | 80 | 1014.9 |
| 20260830091544 | 71 | 154 | 2.0 | 6.0 | 0.00 | 0.00 | 0.00 | 80 | 1015.0 |
| 20260830091030 | 71 | 208 | 2.0 | 6.0 | 0.00 | 0.00 | 0.00 | 80 | 1015.1 |
| 20260830090530 | 71 | 157 | 1.0 | 4.0 | 0.00 | 0.00 | 0.00 | 80 | 1015.1 |
| 20260830090108 | 71 | 141 | 2.0 | 5.0 | 0.00 | 0.00 | 0.00 | 80 | 1015.2 |
| 20260830085530 | 71 | 145 | 2.0 | 5.0 | 0.00 | 0.00 | 0.00 | 80 | 1015.1 |
| 20260830085030 | 71 | 193 | 1.0 | 4.0 | 0.00 | 0.00 | 0.00 | 80 | 1015.2 |
| 20260830084546 | 71 | 171 | 1.0 | 4.0 | 0.00 | 0.00 | 0.00 | 80 | 1015.1 |
| 20260830084030 | 71 | 213 | 2.0 | 4.0 | 0.00 | 0.00 | 0.00 | 79 | 1015.1 |
| 20260830083530 | 71 | 151 | 1.0 | 3.0 | 0.00 | 0.00 | 0.00 | 79 | 1015.3 |
| 20260830083044 | 71 | 131 | 1.0 | 3.0 | 0.00 | 0.00 | 0.00 | 79 | 1015.1 |
| 20260830082529 | 71 | 234 | 0.0 | 4.0 | 0.00 | 0.00 | 0.00 | 78 | 1015.2 |
| 20260830082027 | 71 | 200 | 1.0 | 4.0 | 0.00 | 0.00 | 0.00 | 78 | 1015.2 |
| 20260830081550 | 71 | 238 | 2.0 | 4.0 | 0.00 | 0.00 | 0.00 | 77 | 1015.3 |
| 20260830081030 | 72 | 139 | 1.0 | 4.0 | 0.00 | 0.00 | 0.00 | 77 | 1015.3 |
| 20260830080530 | 72 | 127 | 2.0 | 4.0 | 0.00 | 0.00 | 0.00 | 77 | 1015.3 |
| 20260830080048 | 72 | 222 | 1.0 | 4.0 | 0.00 | 0.00 | 0.00 | 77 | 1015.3 |
| 20260830075530 | 72 | 213 | 2.0 | 5.0 | 0.00 | 0.00 | 0.00 | 76 | 1015.4 |
| 20260830075030 | 72 | 225 | 2.0 | 8.0 | 0.00 | 0.00 | 0.00 | 76 | 1015.3 |
| 20260830074550 | 72 | 207 | 3.0 | 8.0 | 0.00 | 0.00 | 0.00 | 76 | 1015.5 |
| 20260830074029 | 72 | 167 | 2.0 | 7.0 | 0.00 | 0.00 | 0.00 | 76 | 1015.4 |
| 20260830073527 | 72 | 168 | 3.0 | 7.0 | 0.00 | 0.00 | 0.00 | 76 | 1015.6 |
| 20260830073107 | 71 | 188 | 2.0 | 8.0 | 0.00 | 0.00 | 0.00 | 77 | 1015.5 |
| 20260830072530 | 71 | 228 | 2.0 | 8.0 | 0.00 | 0.00 | 0.00 | 77 | 1015.7 |
| 20260830072030 | 71 | 150 | 2.0 | 6.0 | 0.00 | 0.00 | 0.00 | 78 | 1015.7 |
| 20260830071551 | 71 | 195 | 2.0 | 6.0 | 0.00 | 0.00 | 0.00 | 79 | 1015.7 |
| 20260830071029 | 71 | 161 | 1.0 | 4.0 | 0.00 | 0.00 | 0.00 | 79 | 1015.6 |
| 20260830070530 | 71 | 134 | 2.0 | 4.0 | 0.00 | 0.00 | 0.00 | 79 | 1015.7 |
| 20260830070048 | 71 | 150 | 1.0 | 4.0 | 0.00 | 0.00 | 0.00 | 79 | 1015.7 |
| 20260830065530 | 71 | 150 | 1.0 | 3.0 | 0.00 | 0.00 | 0.00 | 79 | 1015.7 |
| 20260830065030 | 71 | 218 | 1.0 | 5.0 | 0.00 | 0.00 | 0.00 | 79 | 1015.8 |
| 20260830064546 | 71 | 166 | 1.0 | 5.0 | 0.00 | 0.00 | 0.00 | 78 | 1015.8 |
| 20260830064030 | 71 | 212 | 2.0 | 6.0 | 0.00 | 0.00 | 0.00 | 78 | 1015.9 |
| 20260830063530 | 71 | 207 | 2.0 | 6.0 | 0.00 | 0.00 | 0.00 | 78 | 1015.8 |
| 20260830063056 | 71 | 166 | 2.0 | 6.0 | 0.00 | 0.00 | 0.00 | 78 | 1015.8 |
| 20260830062530 | 72 | 175 | 2.0 | 6.0 | 0.00 | 0.00 | 0.00 | 78 | 1015.9 |
| 20260830062030 | 72 | 202 | 3.0 | 6.0 | 0.00 | 0.00 | 0.00 | 77 | 1016.0 |
| 20260830061553 | 72 | 159 | 2.0 | 7.0 | 0.00 | 0.00 | 0.00 | 77 | 1016.0 |
| 20260830061031 | 72 | 212 | 3.0 | 9.0 | 0.00 | 0.00 | 0.00 | 77 | 1016.1 |
| 20260830060530 | 72 | 217 | 4.0 | 9.0 | 0.00 | 0.00 | 0.00 | 77 | 1016.0 |
| 20260830060049 | 72 | 168 | 4.0 | 9.0 | 0.00 | 0.00 | 0.00 | 77 | 1016.1 |
| 20260830055530 | 72 | 149 | 4.0 | 11.0 | 0.00 | 0.00 | 0.00 | 76 | 1016.1 |
| 20260830055027 | 72 | 175 | 4.0 | 11.0 | 0.00 | 0.00 | 0.00 | 76 | 1016.1 |
| 20260830054558 | 72 | 174 | 4.0 | 11.0 | 0.00 | 0.00 | 0.00 | 76 | 1016.0 |
| 20260830054029 | 72 | 154 | 4.0 | 10.0 | 0.00 | 0.00 | 0.00 | 76 | 1016.1 |
| 20260830053529 | 72 | 152 | 5.0 | 10.0 | 0.00 | 0.00 | 0.00 | 76 | 1016.1 |
| 20260830053046 | 72 | 220 | 4.0 | 10.0 | 0.00 | 0.00 | 0.00 | 76 | 1016.1 |
| 20260830052530 | 72 | 198 | 4.0 | 10.0 | 0.00 | 0.00 | 0.00 | 76 | 1016.1 |
| 20260830052030 | 72 | 143 | 4.0 | 10.0 | 0.00 | 0.00 | 0.00 | 76 | 1016.0 |
| 20260830051552 | 72 | 262 | 4.0 | 11.0 | 0.00 | 0.00 | 0.00 | 77 | 1015.9 |
| 20260830051030 | 72 | 160 | 4.0 | 11.0 | 0.00 | 0.00 | 0.00 | 77 | 1016.1 |
| 20260830050531 | 72 | 201 | 5.0 | 11.0 | 0.00 | 0.00 | 0.00 | 77 | 1016.0 |
| 20260830050048 | 72 | 147 | 5.0 | 9.0 | 0.00 | 0.00 | 0.00 | 77 | 1016.1 |
| 20260830045532 | 72 | 168 | 4.0 | 10.0 | 0.00 | 0.00 | 0.00 | 77 | 1016.2 |
| 20260830045030 | 72 | 181 | 4.0 | 10.0 | 0.00 | 0.00 | 0.00 | 77 | 1016.2 |
| 20260830044548 | 72 | 205 | 4.0 | 10.0 | 0.00 | 0.00 | 0.00 | 77 | 1016.2 |
| 20260830044031 | 72 | 192 | 3.0 | 8.0 | 0.00 | 0.00 | 0.00 | 78 | 1016.4 |
| 20260830043529 | 72 | 174 | 3.0 | 6.0 | 0.00 | 0.00 | 0.00 | 78 | 1016.4 |
| 20260830043050 | 72 | 53 | 2.0 | 10.0 | 0.00 | 0.00 | 0.00 | 79 | 1016.4 |
| 20260830042530 | 72 | 223 | 3.0 | 10.0 | 0.00 | 0.00 | 0.00 | 79 | 1016.4 |
| 20260830042031 | 73 | 203 | 3.0 | 10.0 | 0.00 | 0.00 | 0.00 | 79 | 1016.5 |
| 20260830041547 | 73 | 207 | 3.0 | 7.0 | 0.00 | 0.00 | 0.00 | 79 | 1016.6 |
| 20260830041027 | 73 | 155 | 4.0 | 7.0 | 0.00 | 0.00 | 0.00 | 79 | 1016.5 |
| 20260830040527 | 72 | 208 | 3.0 | 7.0 | 0.00 | 0.00 | 0.00 | 80 | 1016.5 |
| 20260830040048 | 72 | 151 | 3.0 | 5.0 | 0.00 | 0.00 | 0.00 | 80 | 1016.5 |
| 20260830035530 | 73 | 169 | 2.0 | 9.0 | 0.00 | 0.00 | 0.00 | 80 | 1016.5 |
| 20260830035031 | 73 | 204 | 4.0 | 9.0 | 0.00 | 0.00 | 0.00 | 81 | 1016.6 |
| 20260830034546 | 72 | 146 | 3.0 | 8.0 | 0.00 | 0.00 | 0.00 | 81 | 1016.5 |
| 20260830034030 | 72 | 188 | 4.0 | 7.0 | 0.00 | 0.00 | 0.00 | 81 | 1016.6 |
| 20260830033530 | 72 | 208 | 3.0 | 7.0 | 0.00 | 0.00 | 0.00 | 82 | 1016.6 |
| 20260830033046 | 72 | 162 | 3.0 | 7.0 | 0.00 | 0.00 | 0.00 | 82 | 1016.6 |
| 20260830032533 | 72 | 165 | 2.0 | 7.0 | 0.00 | 0.00 | 0.00 | 83 | 1016.5 |
| 20260830032028 | 72 | 142 | 3.0 | 8.0 | 0.00 | 0.00 | 0.00 | 83 | 1016.5 |
| 20260830031551 | 72 | 210 | 2.0 | 8.0 | 0.00 | 0.00 | 0.00 | 83 | 1016.5 |
| 20260830031032 | 72 | 173 | 3.0 | 8.0 | 0.00 | 0.00 | 0.00 | 83 | 1016.5 |
| 20260830030530 | 72 | 120 | 3.0 | 6.0 | 0.00 | 0.00 | 0.00 | 84 | 1016.5 |
| 20260830030049 | 72 | 179 | 2.0 | 6.0 | 0.00 | 0.00 | 0.00 | 84 | 1016.6 |
| 20260830025533 | 72 | 176 | 2.0 | 6.0 | 0.00 | 0.00 | 0.00 | 84 | 1016.6 |
| 20260830025029 | 72 | 256 | 2.0 | 6.0 | 0.00 | 0.00 | 0.00 | 85 | 1016.6 |
| 20260830024544 | 72 | 215 | 2.0 | 6.0 | 0.00 | 0.00 | 0.00 | 85 | 1016.6 |
| 20260830024028 | 72 | 195 | 2.0 | 5.0 | 0.00 | 0.00 | 0.00 | 85 | 1016.5 |
| 20260830023529 | 72 | 207 | 2.0 | 5.0 | 0.00 | 0.00 | 0.00 | 85 | 1016.6 |
| 20260830023101 | 72 | 220 | 2.0 | 5.0 | 0.00 | 0.00 | 0.00 | 85 | 1016.7 |
| 20260830022528 | 72 | 218 | 2.0 | 5.0 | 0.00 | 0.00 | 0.00 | 86 | 1016.7 |
| 20260830022027 | 72 | 136 | 2.0 | 5.0 | 0.00 | 0.00 | 0.00 | 86 | 1016.6 |
| 20260830021543 | 72 | 165 | 2.0 | 5.0 | 0.00 | 0.00 | 0.00 | 86 | 1016.7 |
| 20260830021030 | 72 | 213 | 1.0 | 4.0 | 0.00 | 0.00 | 0.00 | 86 | 1016.9 |
| 20260830020532 | 72 | 132 | 1.0 | 4.0 | 0.00 | 0.00 | 0.00 | 86 | 1016.7 |
| 20260830020050 | 72 | 172 | 1.0 | 4.0 | 0.00 | 0.00 | 0.00 | 85 | 1016.7 |
| 20260830015532 | 72 | 152 | 1.0 | 4.0 | 0.00 | 0.00 | 0.00 | 85 | 1016.9 |
| 20260830015029 | 72 | 162 | 1.0 | 3.0 | 0.00 | 0.00 | 0.00 | 85 | 1016.8 |
| 20260830014547 | 72 | 180 | 1.0 | 3.0 | 0.00 | 0.00 | 0.00 | 85 | 1016.8 |
| 20260830014028 | 72 | 134 | 1.0 | 3.0 | 0.00 | 0.00 | 0.00 | 85 | 1016.7 |
| 20260830013533 | 73 | 171 | 1.0 | 3.0 | 0.00 | 0.00 | 0.00 | 84 | 1016.8 |
| 20260830013049 | 73 | 138 | 0.0 | 3.0 | 0.00 | 0.00 | 0.00 | 84 | 1016.8 |
| 20260830012529 | 73 | 188 | 1.0 | 4.0 | 0.00 | 0.00 | 0.00 | 83 | 1016.7 |
| 20260830012030 | 73 | 205 | 1.0 | 4.0 | 0.00 | 0.00 | 0.00 | 83 | 1016.7 |
| 20260830011556 | 73 | 139 | 1.0 | 3.0 | 0.00 | 0.00 | 0.00 | 83 | 1016.7 |
| 20260830011027 | 73 | 203 | 1.0 | 3.0 | 0.00 | 0.00 | 0.00 | 83 | 1016.6 |
| 20260830010531 | 74 | 158 | 1.0 | 4.0 | 0.00 | 0.00 | 0.00 | 82 | 1016.5 |
| 20260830010059 | 74 | 204 | 1.0 | 4.0 | 0.00 | 0.00 | 0.00 | 82 | 1016.6 |
| 20260830005531 | 74 | 160 | 2.0 | 4.0 | 0.00 | 0.00 | 0.00 | 82 | 1016.5 |
| 20260830005028 | 74 | 181 | 2.0 | 6.0 | 0.00 | 0.00 | 0.00 | 81 | 1016.5 |
| 20260830004600 | 74 | 191 | 1.0 | 6.0 | 0.00 | 0.00 | 0.00 | 81 | 1016.5 |
| 20260830004029 | 74 | 139 | 2.0 | 7.0 | 0.00 | 0.00 | 0.00 | 81 | 1016.5 |
| 20260830003527 | 74 | 210 | 2.0 | 7.0 | 0.00 | 0.00 | 0.00 | 81 | 1016.3 |
| 20260830003104 | 75 | 214 | 3.0 | 5.0 | 0.00 | 0.00 | 0.00 | 81 | 1016.5 |
| 20260830002529 | 75 | 214 | 2.0 | 5.0 | 0.00 | 0.00 | 0.00 | 81 | 1016.6 |